User: anonymous   Login
Location: Unspecified
(0.0000°N, 0.0000°E)
Time: 13:16:08
(UTC+00:00)
Language:

DSP F16 - Orbit

View from above orbital plane
View from above orbital plane
View from above satellite
View from above satellite

Ground track
Ground track

The orbit data is extracted from the following two-line orbital elements,

1 21805U 91080B   21015.70655948 -.00000173  00000-0  00000-0 0  9999
2 21805  15.0052   0.6236 0008370  30.7454 158.0173  0.99190368  6083
Epoch (UTC): 15 January 2021 16:57:26
Eccentricity: 0.0008370
inclination: 15.0052°
perigee height: 36056 km
apogee height: 36127 km
right ascension of ascending node: 0.6236°
argument of perigee: 30.7454°
revolutions per day: 0.99190368
mean anomaly at epoch: 158.0173°
orbit number at epoch: 608

The dashed part of the orbit path shows where the satellite is in the earth's shadow,  

DLR